Time,TemperatureF,DewpointF,PressureIn,WindDirection,WindDirectionDegrees,WindSpeedMPH,WindSpeedGustMPH,Humidity,HourlyPrecipIn,Conditions,Clouds,dailyrainin,SoftwareType,DateUTC
2013-04-18 00:00:00,64.2,61.8,30.10,NNE,14,0.0,0.0,92,0.00,,CLR,0.00,VWS V14.01,2013-04-18 04:00:00,
2013-04-18 00:01:00,64.2,61.8,30.10,NNE,14,0.0,0.0,92,0.00,,CLR,0.00,VWS V14.01,2013-04-18 04:01:00,
2013-04-18 00:06:00,64.1,61.7,30.09,NNE,14,0.0,0.0,92,0.00,,CLR,0.00,VWS V14.01,2013-04-18 04:06:00,
2013-04-18 00:11:00,64.0,61.6,30.09,NNE,14,0.0,0.0,92,0.00,,CLR,0.00,VWS V14.01,2013-04-18 04:11:00,
2013-04-18 00:16:00,63.9,61.5,30.09,NNE,14,0.0,0.0,92,0.00,,CLR,0.00,VWS V14.01,2013-04-18 04:16:00,
2013-04-18 00:21:00,63.9,61.8,30.08,NNE,14,0.0,0.0,93,0.00,,CLR,0.00,VWS V14.01,2013-04-18 04:21:00,
2013-04-18 00:26:00,63.9,61.8,30.08,NNE,14,0.0,0.0,93,0.00,,CLR,0.00,VWS V14.01,2013-04-18 04:26:00,
2013-04-18 00:30:00,63.9,61.8,30.08,NNE,14,0.0,0.0,93,0.00,,CLR,0.00,VWS V14.01,2013-04-18 04:30:00,
2013-04-18 00:31:00,63.8,61.4,30.08,NNE,14,0.0,0.0,92,0.00,,CLR,0.00,VWS V14.01,2013-04-18 04:31:00,
2013-04-18 00:36:00,63.7,61.3,30.08,NNE,14,0.0,0.0,92,0.00,,CLR,0.00,VWS V14.01,2013-04-18 04:36:00,
2013-04-18 00:41:00,63.7,61.3,30.08,NNE,14,0.0,0.0,92,0.00,,CLR,0.00,VWS V14.01,2013-04-18 04:41:00,
2013-04-18 00:46:00,63.8,61.7,30.08,NNE,14,0.0,0.0,93,0.00,,CLR,0.00,VWS V14.01,2013-04-18 04:46:00,
2013-04-18 00:51:00,63.8,61.7,30.08,NNE,14,0.0,0.0,93,0.00,,CLR,0.00,VWS V14.01,2013-04-18 04:51:00,
2013-04-18 00:56:00,63.8,61.7,30.08,NNE,14,0.0,0.0,93,0.00,,CLR,0.00,VWS V14.01,2013-04-18 04:56:00,
2013-04-18 01:00:00,63.8,61.7,30.08,NNE,14,0.0,0.0,93,0.00,,CLR,0.00,VWS V14.01,2013-04-18 05:00:00,
2013-04-18 01:01:00,63.7,61.6,30.08,NNE,14,0.0,0.0,93,0.00,,CLR,0.00,VWS V14.01,2013-04-18 05:01:00,
2013-04-18 01:06:00,63.7,61.6,30.08,NNE,14,0.0,0.0,93,0.00,,CLR,0.00,VWS V14.01,2013-04-18 05:06:00,
2013-04-18 01:11:00,63.7,61.6,30.08,NNE,14,0.0,0.0,93,0.00,,CLR,0.00,VWS V14.01,2013-04-18 05:11:00,
2013-04-18 01:16:00,63.6,61.5,30.08,NNE,14,0.0,0.0,93,0.00,,CLR,0.00,VWS V14.01,2013-04-18 05:16:00,
2013-04-18 01:21:00,63.6,61.2,30.08,NNE,14,0.0,0.0,92,0.00,,CLR,0.00,VWS V14.01,2013-04-18 05:21:00,
2013-04-18 01:26:00,63.6,61.5,30.08,NNE,14,0.0,0.0,93,0.00,,CLR,0.00,VWS V14.01,2013-04-18 05:26:00,
2013-04-18 01:30:00,63.5,61.4,30.08,NNE,14,0.0,0.0,93,0.00,,CLR,0.00,VWS V14.01,2013-04-18 05:30:00,
2013-04-18 01:31:00,63.5,61.4,30.08,NNE,14,0.0,0.0,93,0.00,,CLR,0.00,VWS V14.01,2013-04-18 05:31:00,
2013-04-18 01:36:00,63.4,61.3,30.08,NNE,14,0.0,0.0,93,0.00,,CLR,0.00,VWS V14.01,2013-04-18 05:36:00,
2013-04-18 01:41:00,63.3,61.2,30.08,NNE,14,0.0,0.0,93,0.00,,CLR,0.00,VWS V14.01,2013-04-18 05:41:00,
2013-04-18 01:46:00,63.1,61.0,30.08,NNE,14,0.0,0.0,93,0.00,,CLR,0.00,VWS V14.01,2013-04-18 05:46:00,
2013-04-18 01:52:00,63.0,61.0,30.08,NNE,14,0.0,0.0,93,0.00,,CLR,0.00,VWS V14.01,2013-04-18 05:52:00,
2013-04-18 01:57:00,62.8,60.8,30.08,NNE,14,0.0,0.0,93,0.00,,CLR,0.00,VWS V14.01,2013-04-18 05:57:00,
2013-04-18 02:00:00,62.8,60.8,30.08,NNE,14,0.0,0.0,93,0.00,,CLR,0.00,VWS V14.01,2013-04-18 06:00:00,
2013-04-18 02:01:00,62.7,60.7,30.08,NNE,14,0.0,0.0,93,0.00,,CLR,0.00,VWS V14.01,2013-04-18 06:01:00,
2013-04-18 02:06:00,62.5,60.5,30.08,NNE,14,0.0,0.0,93,0.00,,CLR,0.00,VWS V14.01,2013-04-18 06:06:00,
2013-04-18 02:11:00,62.4,60.7,30.08,NNE,14,0.0,0.0,94,0.00,,CLR,0.00,VWS V14.01,2013-04-18 06:11:00,
2013-04-18 02:16:00,62.2,60.5,30.08,NNE,14,0.0,0.0,94,0.00,,CLR,0.00,VWS V14.01,2013-04-18 06:16:00,
2013-04-18 02:21:00,62.0,60.3,30.07,NNE,14,0.0,0.0,94,0.00,,CLR,0.00,VWS V14.01,2013-04-18 06:21:00,
2013-04-18 02:26:00,61.9,60.2,30.08,NNE,14,0.0,0.0,94,0.00,,CLR,0.00,VWS V14.01,2013-04-18 06:26:00,
2013-04-18 02:30:00,61.8,59.8,30.08,NNE,14,0.0,0.0,93,0.00,,CLR,0.00,VWS V14.01,2013-04-18 06:30:00,
2013-04-18 02:31:00,61.7,59.7,30.08,NNE,14,0.0,0.0,93,0.00,,CLR,0.00,VWS V14.01,2013-04-18 06:31:00,
2013-04-18 02:36:00,61.5,59.5,30.08,NNE,14,0.0,0.0,93,0.00,,CLR,0.00,VWS V14.01,2013-04-18 06:36:00,
2013-04-18 02:41:00,61.4,59.7,30.08,NNE,14,0.0,0.0,94,0.00,,CLR,0.00,VWS V14.01,2013-04-18 06:41:00,
2013-04-18 02:46:00,61.4,59.7,30.08,NNE,14,0.0,0.0,94,0.00,,CLR,0.00,VWS V14.01,2013-04-18 06:46:00,
2013-04-18 02:51:00,61.2,59.5,30.08,NNE,14,0.0,0.0,94,0.00,,CLR,0.00,VWS V14.01,2013-04-18 06:51:00,
2013-04-18 02:56:00,61.1,59.4,30.08,NNE,14,0.0,0.0,94,0.00,,CLR,0.00,VWS V14.01,2013-04-18 06:56:00,
2013-04-18 03:00:00,61.0,59.3,30.08,NNE,14,0.0,0.0,94,0.00,,CLR,0.00,VWS V14.01,2013-04-18 07:00:00,
2013-04-18 03:01:00,61.0,59.3,30.08,NNE,14,0.0,0.0,94,0.00,,CLR,0.00,VWS V14.01,2013-04-18 07:01:00,
2013-04-18 03:06:00,60.9,59.5,30.08,NNE,14,0.0,0.0,95,0.00,,CLR,0.00,VWS V14.01,2013-04-18 07:06:00,
2013-04-18 03:11:00,60.8,59.4,30.08,NNE,14,0.0,0.0,95,0.00,,CLR,0.00,VWS V14.01,2013-04-18 07:11:00,
2013-04-18 03:17:00,60.7,59.3,30.08,NNE,14,0.0,0.0,95,0.00,,CLR,0.00,VWS V14.01,2013-04-18 07:17:00,
2013-04-18 03:22:00,60.6,58.9,30.08,NNE,14,0.0,0.0,94,0.00,,CLR,0.00,VWS V14.01,2013-04-18 07:22:00,
2013-04-18 03:26:00,60.5,59.1,30.08,NNE,14,0.0,0.0,95,0.00,,CLR,0.00,VWS V14.01,2013-04-18 07:26:00,
2013-04-18 03:30:00,60.5,59.1,30.08,NNE,14,0.0,0.0,95,0.00,,CLR,0.00,VWS V14.01,2013-04-18 07:30:00,
2013-04-18 03:31:00,60.5,59.1,30.08,NNE,14,0.0,0.0,95,0.00,,CLR,0.00,VWS V14.01,2013-04-18 07:31:00,
2013-04-18 03:36:00,60.4,59.0,30.08,NNE,14,0.0,0.0,95,0.00,,CLR,0.00,VWS V14.01,2013-04-18 07:36:00,
2013-04-18 03:41:00,60.5,59.1,30.08,NNE,14,0.0,0.0,95,0.00,,CLR,0.00,VWS V14.01,2013-04-18 07:41:00,
2013-04-18 03:46:00,60.5,59.1,30.08,NNE,14,0.0,0.0,95,0.00,,CLR,0.00,VWS V14.01,2013-04-18 07:46:00,
2013-04-18 03:51:00,60.4,59.0,30.08,NNE,14,0.0,0.0,95,0.00,,CLR,0.00,VWS V14.01,2013-04-18 07:51:00,
2013-04-18 03:56:00,60.4,59.0,30.08,NNE,14,0.0,0.0,95,0.00,,CLR,0.00,VWS V14.01,2013-04-18 07:56:00,
2013-04-18 04:00:00,60.4,59.0,30.08,NNE,14,0.0,0.0,95,0.00,,CLR,0.00,VWS V14.01,2013-04-18 08:00:00,
2013-04-18 04:01:00,60.4,59.0,30.08,NNE,14,0.0,0.0,95,0.00,,CLR,0.00,VWS V14.01,2013-04-18 08:01:00,
2013-04-18 04:06:00,60.3,58.9,30.08,NNE,14,0.0,0.0,95,0.00,,CLR,0.00,VWS V14.01,2013-04-18 08:06:00,
2013-04-18 04:11:00,60.1,58.7,30.09,NNE,14,0.0,0.0,95,0.00,,CLR,0.00,VWS V14.01,2013-04-18 08:11:00,
2013-04-18 04:16:00,60.1,58.7,30.09,NNE,14,0.0,0.0,95,0.00,,CLR,0.00,VWS V14.01,2013-04-18 08:16:00,
2013-04-18 04:22:00,60.0,58.6,30.09,NNE,14,0.0,0.0,95,0.00,,CLR,0.00,VWS V14.01,2013-04-18 08:22:00,
2013-04-18 04:26:00,59.9,58.5,30.08,NNE,14,0.0,0.0,95,0.00,,CLR,0.00,VWS V14.01,2013-04-18 08:26:00,
2013-04-18 04:30:00,59.9,58.5,30.08,NNE,14,0.0,0.0,95,0.00,,CLR,0.00,VWS V14.01,2013-04-18 08:30:00,
2013-04-18 04:31:00,59.9,58.8,30.09,NNE,14,0.0,0.0,96,0.00,,CLR,0.00,VWS V14.01,2013-04-18 08:31:00,
2013-04-18 04:36:00,59.9,58.8,30.09,NNE,14,0.0,0.0,96,0.00,,CLR,0.00,VWS V14.01,2013-04-18 08:36:00,
2013-04-18 04:41:00,59.8,58.7,30.09,NNE,14,0.0,0.0,96,0.00,,CLR,0.00,VWS V14.01,2013-04-18 08:41:00,
2013-04-18 04:46:00,59.8,58.7,30.09,NNE,14,0.0,0.0,96,0.00,,CLR,0.00,VWS V14.01,2013-04-18 08:46:00,
2013-04-18 04:51:00,59.8,58.7,30.09,NNE,14,0.0,0.0,96,0.00,,CLR,0.00,VWS V14.01,2013-04-18 08:51:00,
2013-04-18 04:56:00,59.7,58.6,30.09,NNE,14,0.0,0.0,96,0.00,,CLR,0.00,VWS V14.01,2013-04-18 08:56:00,
2013-04-18 05:00:00,59.7,58.6,30.09,NNE,14,0.0,0.0,96,0.00,,CLR,0.00,VWS V14.01,2013-04-18 09:00:00,
2013-04-18 05:01:00,59.7,58.6,30.09,NNE,14,0.0,0.0,96,0.00,,CLR,0.00,VWS V14.01,2013-04-18 09:01:00,
2013-04-18 05:06:00,59.7,58.6,30.09,NNE,14,0.0,0.0,96,0.00,,CLR,0.00,VWS V14.01,2013-04-18 09:06:00,
2013-04-18 05:11:00,59.6,58.5,30.09,NNE,14,0.0,0.0,96,0.00,,CLR,0.00,VWS V14.01,2013-04-18 09:11:00,
2013-04-18 05:16:00,59.5,58.4,30.09,NNE,14,0.0,0.0,96,0.00,,CLR,0.00,VWS V14.01,2013-04-18 09:16:00,
2013-04-18 05:21:00,59.4,58.3,30.09,NNE,14,0.0,0.0,96,0.00,,CLR,0.00,VWS V14.01,2013-04-18 09:21:00,
2013-04-18 05:26:00,59.3,58.2,30.09,NNE,14,0.0,0.0,96,0.00,,CLR,0.00,VWS V14.01,2013-04-18 09:26:00,
2013-04-18 05:30:00,59.3,58.2,30.09,NNE,14,0.0,0.0,96,0.00,,CLR,0.00,VWS V14.01,2013-04-18 09:30:00,
2013-04-18 05:31:00,59.3,58.2,30.09,NNE,14,0.0,0.0,96,0.00,,CLR,0.00,VWS V14.01,2013-04-18 09:31:00,
2013-04-18 05:36:00,59.3,58.2,30.09,NNE,14,0.0,0.0,96,0.00,,CLR,0.00,VWS V14.01,2013-04-18 09:36:00,
2013-04-18 05:41:00,59.2,58.1,30.09,NNE,14,0.0,0.0,96,0.00,,CLR,0.00,VWS V14.01,2013-04-18 09:41:00,
2013-04-18 05:46:00,59.2,58.1,30.09,NNE,14,0.0,0.0,96,0.00,,CLR,0.00,VWS V14.01,2013-04-18 09:46:00,
2013-04-18 05:51:00,59.2,58.1,30.09,NNE,14,0.0,0.0,96,0.00,,CLR,0.00,VWS V14.01,2013-04-18 09:51:00,
2013-04-18 05:56:00,59.2,58.1,30.09,NNE,14,0.0,0.0,96,0.00,,CLR,0.00,VWS V14.01,2013-04-18 09:56:00,
2013-04-18 06:00:00,59.2,58.1,30.09,NNE,14,0.0,0.0,96,0.00,,CLR,0.00,VWS V14.01,2013-04-18 10:00:00,
2013-04-18 06:02:00,59.2,58.1,30.09,NNE,14,0.0,0.0,96,0.00,,CLR,0.00,VWS V14.01,2013-04-18 10:02:00,
2013-04-18 06:07:00,59.2,58.1,30.08,NNE,14,0.0,0.0,96,0.00,,CLR,0.00,VWS V14.01,2013-04-18 10:07:00,
2013-04-18 06:12:00,59.1,58.0,30.09,NNE,14,0.0,0.0,96,0.00,,CLR,0.00,VWS V14.01,2013-04-18 10:12:00,
2013-04-18 06:17:00,59.1,58.0,30.09,NNE,14,0.0,0.0,96,0.00,,CLR,0.00,VWS V14.01,2013-04-18 10:17:00,
2013-04-18 06:22:00,59.1,58.0,30.09,NNE,14,0.0,0.0,96,0.00,,CLR,0.00,VWS V14.01,2013-04-18 10:22:00,
2013-04-18 06:27:00,59.0,57.9,30.09,NNE,14,0.0,0.0,96,0.00,,CLR,0.00,VWS V14.01,2013-04-18 10:27:00,
2013-04-18 06:30:00,59.0,57.9,30.09,NNE,14,0.0,0.0,96,0.00,,CLR,0.00,VWS V14.01,2013-04-18 10:30:00,
2013-04-18 06:32:00,59.0,57.9,30.09,NNE,14,0.0,0.0,96,0.00,,CLR,0.00,VWS V14.01,2013-04-18 10:32:00,
2013-04-18 06:37:00,59.0,57.9,30.10,NNE,14,0.0,0.0,96,0.00,,CLR,0.00,VWS V14.01,2013-04-18 10:37:00,
2013-04-18 06:42:00,59.1,58.0,30.09,NNE,14,0.0,0.0,96,0.00,,CLR,0.00,VWS V14.01,2013-04-18 10:42:00,
2013-04-18 06:47:00,59.0,57.9,30.10,NNE,14,0.0,0.0,96,0.00,,CLR,0.00,VWS V14.01,2013-04-18 10:47:00,
2013-04-18 06:52:00,59.0,57.9,30.09,NNE,14,0.0,0.0,96,0.00,,CLR,0.00,VWS V14.01,2013-04-18 10:52:00,
2013-04-18 06:57:00,59.0,57.9,30.09,NNE,14,0.0,0.0,96,0.00,,CLR,0.00,VWS V14.01,2013-04-18 10:57:00,
2013-04-18 07:00:00,59.0,57.9,30.09,NNE,14,0.0,0.0,96,0.00,,CLR,0.00,VWS V14.01,2013-04-18 11:00:00,
2013-04-18 07:02:00,59.0,57.9,30.09,NNE,14,0.0,0.0,96,0.00,,CLR,0.00,VWS V14.01,2013-04-18 11:02:00,
2013-04-18 07:07:00,58.9,57.8,30.10,NNE,14,0.0,0.0,96,0.00,,CLR,0.00,VWS V14.01,2013-04-18 11:07:00,
2013-04-18 07:12:00,58.9,57.8,30.10,NNE,14,0.0,0.0,96,0.00,,CLR,0.00,VWS V14.01,2013-04-18 11:12:00,
2013-04-18 07:17:00,58.9,58.0,30.10,NNE,14,0.0,0.0,97,0.00,,CLR,0.00,VWS V14.01,2013-04-18 11:17:00,
2013-04-18 07:22:00,58.9,58.0,30.10,NNE,14,0.0,0.0,97,0.00,,CLR,0.00,VWS V14.01,2013-04-18 11:22:00,
2013-04-18 07:27:00,58.9,58.0,30.10,NNE,14,0.0,0.0,97,0.00,,CLR,0.00,VWS V14.01,2013-04-18 11:27:00,
2013-04-18 07:30:00,58.9,58.0,30.09,NNE,14,0.0,0.0,97,0.00,,CLR,0.00,VWS V14.01,2013-04-18 11:30:00,
2013-04-18 07:32:00,58.9,58.0,30.09,NNE,14,0.0,0.0,97,0.00,,CLR,0.00,VWS V14.01,2013-04-18 11:32:00,
2013-04-18 07:37:00,58.8,57.7,30.10,NNE,14,0.0,0.0,96,0.00,,SCT036,0.00,VWS V14.01,2013-04-18 11:37:00,
2013-04-18 07:42:00,58.7,57.6,30.10,NNE,14,0.0,0.0,96,0.00,,SCT036,0.00,VWS V14.01,2013-04-18 11:42:00,
2013-04-18 07:47:00,58.7,57.8,30.10,NNE,14,0.0,0.0,97,0.00,,SCT036,0.00,VWS V14.01,2013-04-18 11:47:00,
2013-04-18 07:52:00,58.9,58.0,30.10,NNE,14,0.0,0.0,97,0.00,,SCT036,0.00,VWS V14.01,2013-04-18 11:52:00,
2013-04-18 07:57:00,59.0,58.2,30.10,NNE,14,0.0,0.0,97,0.00,,SCT036,0.00,VWS V14.01,2013-04-18 11:57:00,
2013-04-18 08:00:00,59.1,58.2,30.10,NNE,14,0.0,0.0,97,0.00,,CLR,0.00,VWS V14.01,2013-04-18 12:00:00,
2013-04-18 08:02:00,59.3,58.5,30.10,NNE,14,0.0,0.0,97,0.00,,SCT036,0.00,VWS V14.01,2013-04-18 12:02:00,
2013-04-18 08:07:00,59.7,58.8,30.10,NNE,14,0.0,0.0,97,0.00,,SCT036,0.00,VWS V14.01,2013-04-18 12:07:00,
2013-04-18 08:12:00,60.1,59.2,30.10,NNE,14,0.0,0.0,97,0.00,,SCT036,0.00,VWS V14.01,2013-04-18 12:12:00,
2013-04-18 08:17:00,60.3,59.5,30.10,NNE,14,0.0,0.0,97,0.00,,SCT036,0.00,VWS V14.01,2013-04-18 12:17:00,
2013-04-18 08:22:00,60.6,59.8,30.10,NNE,14,0.0,0.0,97,0.00,,SCT036,0.00,VWS V14.01,2013-04-18 12:22:00,
2013-04-18 08:27:00,61.1,60.2,30.10,NNE,14,0.0,0.0,97,0.00,,SCT036,0.00,VWS V14.01,2013-04-18 12:27:00,
2013-04-18 08:30:00,61.4,60.5,30.10,NNE,14,0.0,0.0,97,0.00,,CLR,0.00,VWS V14.01,2013-04-18 12:30:00,
2013-04-18 08:32:00,61.7,60.8,30.10,NNE,16,0.0,3.0,97,0.00,,SCT036,0.00,VWS V14.01,2013-04-18 12:32:00,
2013-04-18 08:37:00,62.2,61.3,30.10,NNE,16,0.0,3.0,97,0.00,,CLR,0.00,VWS V14.01,2013-04-18 12:37:00,
2013-04-18 08:41:00,62.7,61.8,30.10,NW,309,0.0,3.0,97,0.00,,CLR,0.00,VWS V14.01,2013-04-18 12:41:00,
2013-04-18 08:46:00,63.1,62.2,30.09,WSW,257,0.0,3.0,97,0.00,,CLR,0.00,VWS V14.01,2013-04-18 12:46:00,
2013-04-18 08:51:00,63.7,62.2,30.09,SSW,207,0.0,3.0,95,0.00,,CLR,0.00,VWS V14.01,2013-04-18 12:51:00,
2013-04-18 08:56:00,64.2,62.4,30.10,South,174,2.0,4.0,94,0.00,,CLR,0.00,VWS V14.01,2013-04-18 12:56:00,
2013-04-18 09:00:00,64.3,61.9,30.10,SE,144,0.0,4.0,92,0.00,,CLR,0.00,VWS V14.01,2013-04-18 13:00:00,
2013-04-18 09:01:00,64.7,62.6,30.10,SSE,164,0.0,2.0,93,0.00,,CLR,0.00,VWS V14.01,2013-04-18 13:01:00,
2013-04-18 09:06:00,65.2,62.2,30.10,SSW,198,1.0,3.0,90,0.00,,CLR,0.00,VWS V14.01,2013-04-18 13:06:00,
2013-04-18 09:11:00,65.6,62.3,30.10,NE,36,0.0,3.0,89,0.00,,CLR,0.00,VWS V14.01,2013-04-18 13:11:00,
2013-04-18 09:16:00,66.0,62.0,30.09,SSW,202,4.0,4.0,87,0.00,,CLR,0.00,VWS V14.01,2013-04-18 13:16:00,
2013-04-18 09:21:00,66.4,61.4,30.09,South,182,2.0,5.0,84,0.00,,CLR,0.00,VWS V14.01,2013-04-18 13:21:00,
2013-04-18 09:26:00,66.8,61.5,30.09,SSE,153,0.0,5.0,83,0.00,,CLR,0.00,VWS V14.01,2013-04-18 13:26:00,
2013-04-18 09:30:00,66.9,61.2,30.10,SW,214,1.0,6.0,82,0.00,,CLR,0.00,VWS V14.01,2013-04-18 13:30:00,
2013-04-18 09:32:00,67.2,61.9,30.10,SE,140,3.0,4.0,83,0.00,,CLR,0.00,VWS V14.01,2013-04-18 13:32:00,
2013-04-18 09:37:00,67.7,61.3,30.10,South,173,0.0,4.0,80,0.00,,CLR,0.00,VWS V14.01,2013-04-18 13:37:00,
2013-04-18 09:42:00,68.3,61.2,30.09,SSE,165,1.0,7.0,78,0.00,,CLR,0.00,VWS V14.01,2013-04-18 13:42:00,
2013-04-18 09:47:00,68.5,60.6,30.09,SSW,213,2.0,7.0,76,0.00,,CLR,0.00,VWS V14.01,2013-04-18 13:47:00,
2013-04-18 09:52:00,68.6,60.7,30.10,South,186,7.0,7.0,76,0.00,,CLR,0.00,VWS V14.01,2013-04-18 13:52:00,
2013-04-18 09:57:00,69.0,60.4,30.10,SSE,163,0.0,9.0,74,0.00,,CLR,0.00,VWS V14.01,2013-04-18 13:57:00,
2013-04-18 10:00:00,69.2,59.8,30.10,SSW,195,2.0,9.0,72,0.00,,CLR,0.00,VWS V14.01,2013-04-18 14:00:00,
2013-04-18 10:01:00,69.3,59.5,30.10,South,170,5.0,7.0,71,0.00,,CLR,0.00,VWS V14.01,2013-04-18 14:01:00,
2013-04-18 10:06:00,69.6,59.4,30.10,SSE,148,2.0,9.0,70,0.00,,CLR,0.00,VWS V14.01,2013-04-18 14:06:00,
2013-04-18 10:11:00,69.9,59.7,30.11,South,183,2.0,9.0,70,0.00,,CLR,0.00,VWS V14.01,2013-04-18 14:11:00,
2013-04-18 10:16:00,70.2,59.6,30.11,SE,138,0.0,9.0,69,0.00,,CLR,0.00,VWS V14.01,2013-04-18 14:16:00,
2013-04-18 10:21:00,71.0,59.1,30.10,SSE,163,2.0,9.0,66,0.00,,CLR,0.00,VWS V14.01,2013-04-18 14:21:00,
2013-04-18 10:26:00,71.4,59.0,30.11,SSE,152,1.0,9.0,65,0.00,,CLR,0.00,VWS V14.01,2013-04-18 14:26:00,
2013-04-18 10:30:00,71.6,59.2,30.10,SSE,161,0.0,9.0,65,0.00,,CLR,0.00,VWS V14.01,2013-04-18 14:30:00,
2013-04-18 10:31:00,71.9,59.1,30.11,South,182,3.0,5.0,64,0.00,,CLR,0.00,VWS V14.01,2013-04-18 14:31:00,
2013-04-18 10:36:00,72.2,58.5,30.10,SW,232,0.0,8.0,62,0.00,,CLR,0.00,VWS V14.01,2013-04-18 14:36:00,
2013-04-18 10:42:00,72.3,57.7,30.11,SSE,149,0.0,10.0,60,0.00,,CLR,0.00,VWS V14.01,2013-04-18 14:42:00,
2013-04-18 10:47:00,72.4,58.2,30.11,South,188,4.0,10.0,61,0.00,,CLR,0.00,VWS V14.01,2013-04-18 14:47:00,
2013-04-18 10:52:00,72.4,58.7,30.10,WSW,240,5.0,10.0,62,0.00,,CLR,0.00,VWS V14.01,2013-04-18 14:52:00,
2013-04-18 10:57:00,73.0,58.8,30.11,East,84,3.0,10.0,61,0.00,,CLR,0.00,VWS V14.01,2013-04-18 14:57:00,
2013-04-18 11:00:00,73.4,58.7,30.11,SSE,160,3.0,10.0,60,0.00,,CLR,0.00,VWS V14.01,2013-04-18 15:00:00,
2013-04-18 11:02:00,73.9,59.6,30.11,SW,222,2.0,3.0,61,0.00,,CLR,0.00,VWS V14.01,2013-04-18 15:02:00,
2013-04-18 11:07:00,74.0,57.8,30.11,SE,130,4.0,7.0,57,0.00,,CLR,0.00,VWS V14.01,2013-04-18 15:07:00,
2013-04-18 11:12:00,74.0,57.8,30.11,WSW,246,3.0,7.0,57,0.00,,CLR,0.00,VWS V14.01,2013-04-18 15:12:00,
2013-04-18 11:17:00,73.9,59.2,30.11,East,96,3.0,8.0,60,0.00,,CLR,0.00,VWS V14.01,2013-04-18 15:17:00,
2013-04-18 11:22:00,73.4,58.2,30.10,SW,219,3.0,12.0,59,0.00,,CLR,0.00,VWS V14.01,2013-04-18 15:22:00,
2013-04-18 11:27:00,74.1,59.3,30.11,WSW,245,6.0,12.0,60,0.00,,CLR,0.00,VWS V14.01,2013-04-18 15:27:00,
2013-04-18 11:30:00,74.2,59.0,30.11,South,177,1.0,12.0,59,0.00,,CLR,0.00,VWS V14.01,2013-04-18 15:30:00,
2013-04-18 11:32:00,74.4,59.6,30.11,WSW,244,1.0,3.0,60,0.00,,CLR,0.00,VWS V14.01,2013-04-18 15:32:00,
2013-04-18 11:37:00,74.6,59.8,30.10,SSE,148,5.0,9.0,60,0.00,,CLR,0.00,VWS V14.01,2013-04-18 15:37:00,
2013-04-18 11:42:00,74.6,59.3,30.10,WNW,295,7.0,9.0,59,0.00,,CLR,0.00,VWS V14.01,2013-04-18 15:42:00,
2013-04-18 11:47:00,74.9,58.7,30.10,WSW,242,8.0,9.0,57,0.00,,CLR,0.00,VWS V14.01,2013-04-18 15:47:00,
2013-04-18 11:52:00,74.7,59.0,30.09,SSW,192,6.0,15.0,58,0.00,,CLR,0.00,VWS V14.01,2013-04-18 15:52:00,
2013-04-18 11:57:00,75.6,59.3,30.09,SSW,202,2.0,15.0,57,0.00,,CLR,0.00,VWS V14.01,2013-04-18 15:57:00,
2013-04-18 12:00:00,76.2,59.4,30.09,SW,232,3.0,15.0,56,0.00,,CLR,0.00,VWS V14.01,2013-04-18 16:00:00,
2013-04-18 12:02:00,76.7,58.8,30.10,SSW,200,5.0,10.0,54,0.00,,CLR,0.00,VWS V14.01,2013-04-18 16:02:00,
2013-04-18 12:07:00,76.0,58.2,30.09,ESE,107,10.0,10.0,54,0.00,,CLR,0.00,VWS V14.01,2013-04-18 16:07:00,
2013-04-18 12:12:00,75.7,58.4,30.09,SW,221,3.0,10.0,55,0.00,,CLR,0.00,VWS V14.01,2013-04-18 16:12:00,
2013-04-18 12:17:00,75.7,58.4,30.09,SW,217,5.0,10.0,55,0.00,,CLR,0.00,VWS V14.01,2013-04-18 16:17:00,
2013-04-18 12:22:00,75.4,59.1,30.09,South,190,4.0,10.0,57,0.00,,CLR,0.00,VWS V14.01,2013-04-18 16:22:00,
2013-04-18 12:27:00,75.2,59.4,30.08,SW,236,4.0,10.0,58,0.00,,CLR,0.00,VWS V14.01,2013-04-18 16:27:00,
2013-04-18 12:30:00,75.3,60.0,30.08,SSW,200,2.0,10.0,59,0.00,,CLR,0.00,VWS V14.01,2013-04-18 16:30:00,
2013-04-18 12:32:00,75.7,59.9,30.08,SSE,151,3.0,6.0,58,0.00,,CLR,0.00,VWS V14.01,2013-04-18 16:32:00,
2013-04-18 12:37:00,76.5,60.2,30.08,WSW,248,4.0,7.0,57,0.00,,FEW038,0.00,VWS V14.01,2013-04-18 16:37:00,
2013-04-18 12:42:00,76.2,60.4,30.08,NE,49,2.0,8.0,58,0.00,,FEW038,0.00,VWS V14.01,2013-04-18 16:42:00,
2013-04-18 12:47:00,76.2,60.4,30.08,SSE,168,5.0,15.0,58,0.00,,FEW038,0.00,VWS V14.01,2013-04-18 16:47:00,
2013-04-18 12:52:00,77.0,60.6,30.07,SW,223,3.0,15.0,57,0.00,,FEW038,0.00,VWS V14.01,2013-04-18 16:52:00,
2013-04-18 12:57:00,76.9,61.0,30.07,SSW,208,3.0,15.0,58,0.00,,FEW038,0.00,VWS V14.01,2013-04-18 16:57:00,
2013-04-18 13:00:00,77.1,61.2,30.07,SSW,211,3.0,15.0,58,0.00,,CLR,0.00,VWS V14.01,2013-04-18 17:00:00,
2013-04-18 13:02:00,77.4,61.0,30.07,SSE,147,3.0,6.0,57,0.00,,FEW038,0.00,VWS V14.01,2013-04-18 17:02:00,
2013-04-18 13:07:00,77.2,60.8,30.07,East,91,2.0,11.0,57,0.00,,FEW038,0.00,VWS V14.01,2013-04-18 17:07:00,
2013-04-18 13:12:00,77.9,61.5,30.07,East,80,1.0,11.0,57,0.00,,FEW038,0.00,VWS V14.01,2013-04-18 17:12:00,
2013-04-18 13:17:00,77.5,60.1,30.07,SE,144,7.0,11.0,55,0.00,,FEW038,0.00,VWS V14.01,2013-04-18 17:17:00,
2013-04-18 13:22:00,76.8,60.4,30.07,SSE,155,2.0,11.0,57,0.00,,FEW038,0.00,VWS V14.01,2013-04-18 17:22:00,
2013-04-18 13:27:00,76.4,61.0,30.07,SSE,159,3.0,11.0,59,0.00,,FEW038,0.00,VWS V14.01,2013-04-18 17:27:00,
2013-04-18 13:30:00,76.6,61.7,30.07,WSW,255,4.0,11.0,60,0.00,,CLR,0.00,VWS V14.01,2013-04-18 17:30:00,
2013-04-18 13:32:00,77.0,60.6,30.06,SSW,209,7.0,10.0,57,0.00,,FEW038,0.00,VWS V14.01,2013-04-18 17:32:00,
2013-04-18 13:37:00,76.2,60.4,30.06,West,273,3.0,16.0,58,0.00,,FEW040,0.00,VWS V14.01,2013-04-18 17:37:00,
2013-04-18 13:42:00,76.6,60.7,30.06,SSW,207,5.0,16.0,58,0.00,,FEW040,0.00,VWS V14.01,2013-04-18 17:42:00,
2013-04-18 13:47:00,77.4,61.0,30.06,SE,138,2.0,16.0,57,0.00,,FEW040,0.00,VWS V14.01,2013-04-18 17:47:00,
2013-04-18 13:52:00,78.0,60.5,30.05,South,190,3.0,16.0,55,0.00,,FEW040,0.00,VWS V14.01,2013-04-18 17:52:00,
2013-04-18 13:57:00,78.0,60.5,30.06,SSW,202,1.0,16.0,55,0.00,,FEW040,0.00,VWS V14.01,2013-04-18 17:57:00,
2013-04-18 14:00:00,77.7,60.3,30.06,SW,227,2.0,16.0,55,0.00,,CLR,0.00,VWS V14.01,2013-04-18 18:00:00,
2013-04-18 14:02:00,77.4,61.0,30.06,SSE,166,4.0,4.0,57,0.00,,FEW040,0.00,VWS V14.01,2013-04-18 18:02:00,
2013-04-18 14:07:00,77.4,61.0,30.06,SSE,147,3.0,8.0,57,0.00,,FEW040,0.00,VWS V14.01,2013-04-18 18:07:00,
2013-04-18 14:12:00,76.9,60.5,30.06,SSE,168,3.0,8.0,57,0.00,,FEW040,0.00,VWS V14.01,2013-04-18 18:12:00,
2013-04-18 14:17:00,77.1,62.2,30.05,South,182,2.0,8.0,60,0.00,,FEW040,0.00,VWS V14.01,2013-04-18 18:17:00,
2013-04-18 14:22:00,78.7,61.2,30.05,SE,141,4.0,8.0,55,0.00,,FEW040,0.00,VWS V14.01,2013-04-18 18:22:00,
2013-04-18 14:27:00,79.2,62.2,30.04,SW,219,7.0,8.0,56,0.00,,FEW040,0.00,VWS V14.01,2013-04-18 18:27:00,
2013-04-18 14:30:00,79.4,60.8,30.05,ESE,117,2.0,8.0,53,0.00,,CLR,0.00,VWS V14.01,2013-04-18 18:30:00,
2013-04-18 14:32:00,79.3,61.8,30.05,SSW,200,7.0,7.0,55,0.00,,FEW040,0.00,VWS V14.01,2013-04-18 18:32:00,
2013-04-18 14:37:00,78.2,60.7,30.04,WSW,256,14.0,14.0,55,0.00,,BKN046,0.00,VWS V14.01,2013-04-18 18:37:00,
2013-04-18 14:42:00,78.2,60.2,30.04,SSW,209,5.0,14.0,54,0.00,,BKN046,0.00,VWS V14.01,2013-04-18 18:42:00,
2013-04-18 14:47:00,78.1,61.6,30.04,ENE,61,7.0,14.0,57,0.00,,BKN046,0.00,VWS V14.01,2013-04-18 18:47:00,
2013-04-18 14:52:00,78.1,61.1,30.03,WSW,243,4.0,14.0,56,0.00,,BKN046,0.00,VWS V14.01,2013-04-18 18:52:00,
2013-04-18 14:57:00,77.8,61.4,30.03,SE,135,1.0,14.0,57,0.00,,BKN046,0.00,VWS V14.01,2013-04-18 18:57:00,
2013-04-18 15:00:00,77.9,61.5,30.03,SSW,207,2.0,14.0,57,0.00,,CLR,0.00,VWS V14.01,2013-04-18 19:00:00,
2013-04-18 15:02:00,78.9,62.4,30.03,SSW,206,1.0,7.0,57,0.00,,BKN046,0.00,VWS V14.01,2013-04-18 19:02:00,
2013-04-18 15:07:00,79.5,60.9,30.03,South,173,5.0,7.0,53,0.00,,BKN046,0.00,VWS V14.01,2013-04-18 19:07:00,
2013-04-18 15:12:00,78.7,60.7,30.03,SE,134,5.0,10.0,54,0.00,,BKN046,0.00,VWS V14.01,2013-04-18 19:12:00,
2013-04-18 15:17:00,78.9,60.9,30.02,SSW,199,4.0,10.0,54,0.00,,BKN046,0.00,VWS V14.01,2013-04-18 19:17:00,
2013-04-18 15:22:00,78.9,60.3,30.02,ENE,67,0.0,11.0,53,0.00,,BKN046,0.00,VWS V14.01,2013-04-18 19:22:00,
2013-04-18 15:27:00,79.3,60.7,30.01,SSW,210,6.0,11.0,53,0.00,,BKN046,0.00,VWS V14.01,2013-04-18 19:27:00,
2013-04-18 15:30:00,79.5,60.9,30.01,SW,230,3.0,11.0,53,0.00,,CLR,0.00,VWS V14.01,2013-04-18 19:30:00,
2013-04-18 15:32:00,80.1,60.4,30.01,SSE,148,5.0,8.0,51,0.00,,BKN046,0.00,VWS V14.01,2013-04-18 19:32:00,
2013-04-18 15:37:00,79.3,60.2,30.01,SW,234,2.0,10.0,52,0.00,,BKN075,0.00,VWS V14.01,2013-04-18 19:37:00,
2013-04-18 15:42:00,79.1,59.4,30.01,SE,146,4.0,10.0,51,0.00,,BKN075,0.00,VWS V14.01,2013-04-18 19:42:00,
2013-04-18 15:47:00,78.8,60.8,30.00,SW,215,3.0,10.0,54,0.00,,BKN075,0.00,VWS V14.01,2013-04-18 19:47:00,
2013-04-18 15:52:00,79.2,60.6,30.00,SSE,163,2.0,11.0,53,0.00,,BKN075,0.00,VWS V14.01,2013-04-18 19:52:00,
2013-04-18 15:57:00,80.4,60.1,29.99,SW,215,5.0,11.0,50,0.00,,BKN075,0.00,VWS V14.01,2013-04-18 19:57:00,
2013-04-18 16:00:00,80.5,60.2,29.99,ESE,114,4.0,11.0,50,0.00,,CLR,0.00,VWS V14.01,2013-04-18 20:00:00,
2013-04-18 16:02:00,79.9,59.6,29.99,WSW,241,2.0,8.0,50,0.00,,BKN075,0.00,VWS V14.01,2013-04-18 20:02:00,
2013-04-18 16:07:00,80.1,60.4,29.98,WSW,240,6.0,8.0,51,0.00,,BKN075,0.00,VWS V14.01,2013-04-18 20:07:00,
2013-04-18 16:12:00,80.6,61.4,29.98,SSW,194,2.0,9.0,52,0.00,,BKN075,0.00,VWS V14.01,2013-04-18 20:12:00,
2013-04-18 16:17:00,81.0,61.2,29.98,SSW,196,4.0,9.0,51,0.00,,BKN075,0.00,VWS V14.01,2013-04-18 20:17:00,
2013-04-18 16:22:00,80.1,60.4,29.98,East,96,5.0,10.0,51,0.00,,BKN075,0.00,VWS V14.01,2013-04-18 20:22:00,
2013-04-18 16:27:00,81.1,61.3,29.98,West,273,1.0,10.0,51,0.00,,BKN075,0.00,VWS V14.01,2013-04-18 20:27:00,
2013-04-18 16:30:00,81.4,60.4,29.98,SE,137,2.0,10.0,49,0.00,,CLR,0.00,VWS V14.01,2013-04-18 20:30:00,
2013-04-18 16:32:00,81.5,59.3,29.98,SE,143,8.0,9.0,47,0.00,,BKN075,0.00,VWS V14.01,2013-04-18 20:32:00,
2013-04-18 16:37:00,80.6,59.1,29.97,ENE,71,3.0,11.0,48,0.00,,SCT080,0.00,VWS V14.01,2013-04-18 20:37:00,
2013-04-18 16:42:00,80.1,59.2,29.98,South,180,9.0,11.0,49,0.00,,SCT080,0.00,VWS V14.01,2013-04-18 20:42:00,
2013-04-18 16:47:00,80.0,59.1,29.97,SW,217,4.0,11.0,49,0.00,,SCT080,0.00,VWS V14.01,2013-04-18 20:47:00,
2013-04-18 16:52:00,80.3,59.4,29.98,SW,230,0.0,11.0,49,0.00,,SCT080,0.00,VWS V14.01,2013-04-18 20:52:00,
2013-04-18 16:57:00,80.4,59.5,29.97,SW,234,8.0,11.0,49,0.00,,SCT080,0.00,VWS V14.01,2013-04-18 20:57:00,
2013-04-18 17:00:00,80.3,60.0,29.97,East,83,11.0,11.0,50,0.00,,CLR,0.00,VWS V14.01,2013-04-18 21:00:00,
2013-04-18 17:02:00,79.8,59.5,29.97,SE,143,1.0,11.0,50,0.00,,SCT080,0.00,VWS V14.01,2013-04-18 21:02:00,
2013-04-18 17:07:00,79.8,60.6,29.97,South,178,8.0,11.0,52,0.00,,SCT080,0.00,VWS V14.01,2013-04-18 21:07:00,
2013-04-18 17:12:00,80.0,60.8,29.97,SW,215,5.0,11.0,52,0.00,,SCT080,0.00,VWS V14.01,2013-04-18 21:12:00,
2013-04-18 17:17:00,80.4,59.5,29.97,SW,219,5.0,18.0,49,0.00,,SCT080,0.00,VWS V14.01,2013-04-18 21:17:00,
2013-04-18 17:22:00,81.0,60.1,29.96,ESE,118,3.0,18.0,49,0.00,,SCT080,0.00,VWS V14.01,2013-04-18 21:22:00,
2013-04-18 17:27:00,80.9,60.0,29.96,South,184,2.0,18.0,49,0.00,,SCT080,0.00,VWS V14.01,2013-04-18 21:27:00,
2013-04-18 17:30:00,81.1,60.2,29.96,SE,132,1.0,18.0,49,0.00,,CLR,0.00,VWS V14.01,2013-04-18 21:30:00,
2013-04-18 17:32:00,81.5,59.9,29.96,WSW,254,6.0,7.0,48,0.00,,SCT080,0.00,VWS V14.01,2013-04-18 21:32:00,
2013-04-18 17:37:00,81.7,60.1,29.96,SSW,198,3.0,7.0,48,0.00,,SCT080,0.00,VWS V14.01,2013-04-18 21:37:00,
2013-04-18 17:42:00,80.6,60.3,29.96,SW,220,1.0,8.0,50,0.00,,SCT080,0.00,VWS V14.01,2013-04-18 21:42:00,
2013-04-18 17:47:00,80.2,59.3,29.96,SSW,200,0.0,8.0,49,0.00,,SCT080,0.00,VWS V14.01,2013-04-18 21:47:00,
2013-04-18 17:52:00,80.6,59.1,29.96,South,187,3.0,8.0,48,0.00,,SCT080,0.00,VWS V14.01,2013-04-18 21:52:00,
2013-04-18 17:57:00,80.7,59.2,29.95,SE,141,3.0,15.0,48,0.00,,SCT080,0.00,VWS V14.01,2013-04-18 21:57:00,
2013-04-18 18:00:00,80.8,59.9,29.95,East,95,6.0,15.0,49,0.00,,CLR,0.00,VWS V14.01,2013-04-18 22:00:00,
2013-04-18 18:02:00,81.0,58.9,29.95,West,272,4.0,7.0,47,0.00,,SCT080,0.00,VWS V14.01,2013-04-18 22:02:00,
2013-04-18 18:07:00,80.3,58.2,29.95,WSW,245,6.0,12.0,47,0.00,,SCT080,0.00,VWS V14.01,2013-04-18 22:07:00,
2013-04-18 18:12:00,79.4,58.0,29.96,WSW,245,5.0,13.0,48,0.00,,SCT080,0.00,VWS V14.01,2013-04-18 22:12:00,
2013-04-18 18:17:00,79.1,58.3,29.95,SSE,147,0.0,13.0,49,0.00,,SCT080,0.00,VWS V14.01,2013-04-18 22:17:00,
2013-04-18 18:22:00,78.7,58.0,29.96,SSW,203,1.0,13.0,49,0.00,,SCT080,0.00,VWS V14.01,2013-04-18 22:22:00,
2013-04-18 18:27:00,78.4,57.7,29.96,WSW,245,4.0,13.0,49,0.00,,SCT080,0.00,VWS V14.01,2013-04-18 22:27:00,
2013-04-18 18:30:00,78.5,57.2,29.96,SW,225,1.0,13.0,48,0.00,,CLR,0.00,VWS V14.01,2013-04-18 22:30:00,
2013-04-18 18:32:00,78.5,57.8,29.96,SW,234,1.0,6.0,49,0.00,,SCT080,0.00,VWS V14.01,2013-04-18 22:32:00,
2013-04-18 18:37:00,78.6,58.4,29.95,SSW,194,4.0,6.0,50,0.00,,FEW055,0.00,VWS V14.01,2013-04-18 22:37:00,
2013-04-18 18:42:00,78.5,57.8,29.95,SW,217,3.0,6.0,49,0.00,,FEW055,0.00,VWS V14.01,2013-04-18 22:42:00,
2013-04-18 18:47:00,78.3,58.2,29.95,SW,233,2.0,9.0,50,0.00,,FEW055,0.00,VWS V14.01,2013-04-18 22:47:00,
2013-04-18 18:52:00,78.3,57.6,29.95,SW,214,4.0,9.0,49,0.00,,FEW055,0.00,VWS V14.01,2013-04-18 22:52:00,
2013-04-18 18:57:00,78.3,57.6,29.95,SSE,168,1.0,9.0,49,0.00,,FEW055,0.00,VWS V14.01,2013-04-18 22:57:00,
2013-04-18 19:00:00,78.4,57.7,29.95,ESE,113,1.0,9.0,49,0.00,,CLR,0.00,VWS V14.01,2013-04-18 23:00:00,
2013-04-18 19:02:00,78.4,57.7,29.95,SSW,194,3.0,11.0,49,0.00,,FEW055,0.00,VWS V14.01,2013-04-18 23:02:00,
2013-04-18 19:07:00,78.2,58.1,29.96,SSW,196,1.0,11.0,50,0.00,,FEW055,0.00,VWS V14.01,2013-04-18 23:07:00,
2013-04-18 19:12:00,78.1,58.5,29.96,West,268,3.0,11.0,51,0.00,,FEW055,0.00,VWS V14.01,2013-04-18 23:12:00,
2013-04-18 19:17:00,77.9,58.3,29.95,South,184,3.0,11.0,51,0.00,,FEW055,0.00,VWS V14.01,2013-04-18 23:17:00,
2013-04-18 19:22:00,77.7,58.2,29.95,SW,219,4.0,11.0,51,0.00,,FEW055,0.00,VWS V14.01,2013-04-18 23:22:00,
2013-04-18 19:27:00,77.5,58.5,29.95,SSW,197,1.0,11.0,52,0.00,,FEW055,0.00,VWS V14.01,2013-04-18 23:27:00,
2013-04-18 19:30:00,77.5,58.5,29.95,South,185,2.0,11.0,52,0.00,,CLR,0.00,VWS V14.01,2013-04-18 23:30:00,
2013-04-18 19:32:00,77.5,58.5,29.95,ESE,119,0.0,3.0,52,0.00,,FEW055,0.00,VWS V14.01,2013-04-18 23:32:00,
2013-04-18 19:37:00,77.3,58.8,29.95,SSE,148,0.0,6.0,53,0.00,,BKN085,0.00,VWS V14.01,2013-04-18 23:37:00,
2013-04-18 19:42:00,77.3,58.8,29.95,South,173,1.0,6.0,53,0.00,,BKN085,0.00,VWS V14.01,2013-04-18 23:42:00,
2013-04-18 19:47:00,77.0,59.1,29.94,SSE,168,0.0,6.0,54,0.00,,BKN085,0.00,VWS V14.01,2013-04-18 23:47:00,
2013-04-18 19:52:00,76.5,59.2,29.94,East,83,0.0,6.0,55,0.00,,BKN085,0.00,VWS V14.01,2013-04-18 23:52:00,
2013-04-18 19:57:00,76.3,59.5,29.95,SSE,150,0.0,6.0,56,0.00,,BKN085,0.00,VWS V14.01,2013-04-18 23:57:00,
2013-04-18 20:00:00,76.2,59.9,29.95,SSE,150,0.0,6.0,57,0.00,,CLR,0.00,VWS V14.01,2013-04-19 00:00:00,
2013-04-18 20:02:00,75.9,59.6,29.94,SE,144,0.0,2.0,57,0.00,,BKN085,0.00,VWS V14.01,2013-04-19 00:02:00,
2013-04-18 20:07:00,75.6,59.3,29.94,SE,125,1.0,3.0,57,0.00,,FEW085,0.00,VWS V14.01,2013-04-19 00:07:00,
2013-04-18 20:12:00,75.3,59.0,29.95,South,172,0.0,3.0,57,0.00,,FEW085,0.00,VWS V14.01,2013-04-19 00:12:00,
2013-04-18 20:17:00,75.1,58.8,29.95,South,172,0.0,3.0,57,0.00,,FEW085,0.00,VWS V14.01,2013-04-19 00:17:00,
2013-04-18 20:22:00,74.9,59.1,29.94,SW,232,1.0,4.0,58,0.00,,FEW085,0.00,VWS V14.01,2013-04-19 00:22:00,
2013-04-18 20:27:00,74.7,59.0,29.95,SSE,156,0.0,4.0,58,0.00,,FEW085,0.00,VWS V14.01,2013-04-19 00:27:00,
2013-04-18 20:30:00,74.7,59.0,29.95,SSE,156,1.0,4.0,58,0.00,,CLR,0.00,VWS V14.01,2013-04-19 00:30:00,
2013-04-18 20:32:00,74.6,58.9,29.95,SSE,156,0.0,1.0,58,0.00,,FEW085,0.00,VWS V14.01,2013-04-19 00:32:00,
2013-04-18 20:37:00,74.3,59.1,29.94,South,179,0.0,2.0,59,0.00,,FEW085,0.00,VWS V14.01,2013-04-19 00:37:00,
2013-04-18 20:42:00,74.0,59.2,29.95,ESE,111,0.0,2.0,60,0.00,,FEW085,0.00,VWS V14.01,2013-04-19 00:42:00,
2013-04-18 20:47:00,73.9,58.7,29.95,SE,136,0.0,2.0,59,0.00,,FEW085,0.00,VWS V14.01,2013-04-19 00:47:00,
2013-04-18 20:52:00,73.9,59.2,29.95,ESE,120,0.0,3.0,60,0.00,,FEW085,0.00,VWS V14.01,2013-04-19 00:52:00,
2013-04-18 20:57:00,73.8,58.6,29.95,ESE,120,0.0,3.0,59,0.00,,FEW085,0.00,VWS V14.01,2013-04-19 00:57:00,
2013-04-18 21:00:00,73.7,59.0,29.95,ESE,120,0.0,3.0,60,0.00,,CLR,0.00,VWS V14.01,2013-04-19 01:00:00,
2013-04-18 21:02:00,73.5,58.8,29.95,South,190,0.0,2.0,60,0.00,,FEW085,0.00,VWS V14.01,2013-04-19 01:02:00,
2013-04-18 21:07:00,73.3,59.5,29.95,WSW,250,0.0,3.0,62,0.00,,FEW085,0.00,VWS V14.01,2013-04-19 01:07:00,
2013-04-18 21:12:00,73.2,58.5,29.96,WSW,253,0.0,3.0,60,0.00,,FEW085,0.00,VWS V14.01,2013-04-19 01:12:00,
2013-04-18 21:17:00,73.1,59.3,29.96,SW,226,0.0,3.0,62,0.00,,FEW085,0.00,VWS V14.01,2013-04-19 01:17:00,
2013-04-18 21:22:00,72.9,58.7,29.96,SW,226,0.0,3.0,61,0.00,,FEW085,0.00,VWS V14.01,2013-04-19 01:22:00,
2013-04-18 21:27:00,72.7,58.9,29.95,SW,229,0.0,3.0,62,0.00,,FEW085,0.00,VWS V14.01,2013-04-19 01:27:00,
2013-04-18 21:30:00,72.6,59.3,29.95,SW,229,0.0,3.0,63,0.00,,CLR,0.00,VWS V14.01,2013-04-19 01:30:00,
2013-04-18 21:32:00,72.5,58.8,29.95,SSE,153,1.0,2.0,62,0.00,,FEW085,0.00,VWS V14.01,2013-04-19 01:32:00,
2013-04-18 21:37:00,72.4,59.1,29.95,South,189,0.0,4.0,63,0.00,,CLR,0.00,VWS V14.01,2013-04-19 01:37:00,
2013-04-18 21:42:00,72.1,58.8,29.96,South,186,0.0,4.0,63,0.00,,CLR,0.00,VWS V14.01,2013-04-19 01:42:00,
2013-04-18 21:47:00,72.2,58.9,29.96,SSE,161,0.0,4.0,63,0.00,,CLR,0.00,VWS V14.01,2013-04-19 01:47:00,
2013-04-18 21:52:00,72.2,58.5,29.96,SSE,161,0.0,4.0,62,0.00,,CLR,0.00,VWS V14.01,2013-04-19 01:52:00,
2013-04-18 21:57:00,72.1,58.4,29.96,SE,128,0.0,4.0,62,0.00,,CLR,0.00,VWS V14.01,2013-04-19 01:57:00,
2013-04-18 22:00:00,72.1,58.8,29.96,SE,128,0.0,4.0,63,0.00,,CLR,0.00,VWS V14.01,2013-04-19 02:00:00,
2013-04-18 22:02:00,72.1,58.4,29.96,South,172,0.0,2.0,62,0.00,,CLR,0.00,VWS V14.01,2013-04-19 02:02:00,
2013-04-18 22:07:00,72.0,59.2,29.95,South,169,0.0,2.0,64,0.00,,CLR,0.00,VWS V14.01,2013-04-19 02:07:00,
2013-04-18 22:12:00,72.0,58.7,29.95,SSW,195,0.0,4.0,63,0.00,,CLR,0.00,VWS V14.01,2013-04-19 02:12:00,
2013-04-18 22:17:00,71.9,58.6,29.95,SSW,195,0.0,4.0,63,0.00,,CLR,0.00,VWS V14.01,2013-04-19 02:17:00,
2013-04-18 22:22:00,71.7,59.3,29.95,SSW,195,0.0,4.0,65,0.00,,CLR,0.00,VWS V14.01,2013-04-19 02:22:00,
2013-04-18 22:27:00,71.5,58.7,29.95,SSW,195,0.0,4.0,64,0.00,,CLR,0.00,VWS V14.01,2013-04-19 02:27:00,
2013-04-18 22:30:00,71.4,59.0,29.95,SSW,195,0.0,4.0,65,0.00,,CLR,0.00,VWS V14.01,2013-04-19 02:30:00,
2013-04-18 22:32:00,71.3,58.9,29.95,SSW,195,0.0,0.0,65,0.00,,CLR,0.00,VWS V14.01,2013-04-19 02:32:00,
2013-04-18 22:37:00,71.2,58.8,29.95,SW,222,0.0,4.0,65,0.00,,CLR,0.00,VWS V14.01,2013-04-19 02:37:00,
2013-04-18 22:42:00,71.1,58.8,29.95,SW,222,0.0,4.0,65,0.00,,CLR,0.00,VWS V14.01,2013-04-19 02:42:00,
2013-04-18 22:47:00,70.9,59.0,29.95,SW,222,0.0,4.0,66,0.00,,CLR,0.00,VWS V14.01,2013-04-19 02:47:00,
2013-04-18 22:52:00,70.6,58.7,29.95,SW,222,0.0,4.0,66,0.00,,CLR,0.00,VWS V14.01,2013-04-19 02:52:00,
2013-04-18 22:57:00,70.3,59.2,29.95,SW,222,0.0,4.0,68,0.00,,CLR,0.00,VWS V14.01,2013-04-19 02:57:00,
2013-04-18 23:00:00,70.1,59.1,29.95,SW,222,0.0,4.0,68,0.00,,CLR,0.00,VWS V14.01,2013-04-19 03:00:00,
2013-04-18 23:02:00,70.0,59.0,29.95,SW,222,0.0,0.0,68,0.00,,CLR,0.00,VWS V14.01,2013-04-19 03:02:00,
2013-04-18 23:07:00,69.7,59.1,29.95,SW,222,0.0,0.0,69,0.00,,CLR,0.00,VWS V14.01,2013-04-19 03:07:00,
2013-04-18 23:12:00,69.6,59.0,29.94,SW,222,0.0,1.0,69,0.00,,CLR,0.00,VWS V14.01,2013-04-19 03:12:00,
2013-04-18 23:17:00,69.5,58.9,29.94,SW,222,0.0,1.0,69,0.00,,CLR,0.00,VWS V14.01,2013-04-19 03:17:00,
2013-04-18 23:22:00,69.5,59.3,29.94,SW,222,0.0,1.0,70,0.00,,CLR,0.00,VWS V14.01,2013-04-19 03:22:00,
2013-04-18 23:27:00,69.4,58.8,29.94,SW,222,0.0,1.0,69,0.00,,CLR,0.00,VWS V14.01,2013-04-19 03:27:00,
2013-04-18 23:30:00,69.3,59.1,29.94,SW,222,0.0,1.0,70,0.00,,CLR,0.00,VWS V14.01,2013-04-19 03:30:00,
2013-04-18 23:32:00,69.2,59.0,29.94,SW,222,0.0,0.0,70,0.00,,CLR,0.00,VWS V14.01,2013-04-19 03:32:00,
2013-04-18 23:37:00,69.1,58.9,29.93,SSE,147,2.0,2.0,70,0.00,,FEW070,0.00,VWS V14.01,2013-04-19 03:37:00,
2013-04-18 23:42:00,69.2,59.0,29.93,South,169,0.0,2.0,70,0.00,,FEW070,0.00,VWS V14.01,2013-04-19 03:42:00,
2013-04-18 23:47:00,69.2,59.4,29.93,South,169,0.0,2.0,71,0.00,,FEW070,0.00,VWS V14.01,2013-04-19 03:47:00,
2013-04-18 23:52:00,69.2,59.0,29.93,SSE,153,0.0,2.0,70,0.00,,FEW070,0.00,VWS V14.01,2013-04-19 03:52:00,
2013-04-18 23:57:00,69.2,59.4,29.93,SSE,162,0.0,2.0,71,0.00,,FEW070,0.00,VWS V14.01,2013-04-19 03:57:00,